Location: Newark
(11.2914°S, 14.4718°E)
Time: 08:05:42
(UTC+00:00)

Vanguard 1 - Visible Passes

Search period start: 20 September 2019 00:00
Search period end: 30 September 2019 00:00
Orbit: 654 x 3830 km, 34.3° (Epoch: 19 September)

Date Brightness Start Highest point End Pass type
(mag) Time Alt. Az. Time Alt. Az. Time Alt. Az.
20 Sep 12.5 17:06:25 10° SSW 17:12:42 21° SSE 17:22:02 10° ESE visible
20 Sep 12.0 19:25:08 10° SW 19:36:30 62° SE 19:37:16 61° SE visible
20 Sep 13.3 21:46:25 10° WSW 22:30:18 - NE 21:50:00 23° WSW visible
21 Sep 14.0 00:43:00 15° N 00:43:00 15° N 00:46:55 10° NNE visible
21 Sep 12.3 17:27:04 10° SSW 17:34:21 27° SSE 17:44:29 12° E visible
21 Sep 11.9 19:46:01 10° SW 19:57:13 76° SSE 19:57:13 76° SSE visible
21 Sep 13.6 22:08:16 10° WSW 22:49:47 - NE 22:09:57 15° W visible
22 Sep 14.0 01:02:29 14° N 01:02:29 14° N 01:06:22 10° N visible
22 Sep 12.1 17:47:42 10° SSW 17:55:48 35° SSE 18:04:29 20° E visible
22 Sep 12.0 20:07:02 10° WSW 20:17:13 74° WSW 20:17:13 74° WSW visible
22 Sep13.923:09:15NNE23:09:15NNE22:29:57Wvisible
23 Sep 14.1 01:21:56 11° NNW 01:21:56 11° NNW 01:24:38 10° N visible
23 Sep 11.9 18:08:20 10° SW 18:17:06 46° SE 18:24:32 29° E visible
23 Sep 12.3 20:28:14 10° WSW 20:37:16 58° W 20:37:16 58° W visible
23 Sep14.123:28:42NNE23:28:42NNE22:50:01Wvisible
24 Sep 11.7 18:29:03 10° SW 18:38:19 60° SE 18:44:38 39° E visible
24 Sep 12.6 20:49:42 10° WSW 20:57:22 43° W 20:57:22 43° W visible
25 Sep 11.6 18:49:53 10° SW 18:59:32 78° SE 19:04:48 49° ENE visible
25 Sep 13.0 21:11:30 10° W 21:17:32 31° WNW 21:17:32 31° WNW visible
26 Sep 11.6 19:10:51 10° WSW 19:20:51 83° NW 19:25:01 57° NE visible
26 Sep 13.4 21:33:47 10° W 21:37:45 21° WNW 21:37:45 21° WNW visible
27 Sep 11.6 17:12:38 10° SW 17:19:43 43° SE 17:32:14 10° ENE visible
27 Sep 11.9 19:32:02 10° WSW 19:42:20 65° NW 19:45:16 57° N visible
27 Sep 13.7 21:56:45 10° WNW 21:58:02 13° WNW 21:58:02 13° WNW visible
28 Sep 11.3 17:33:16 10° SW 17:40:47 59° SE 17:52:50 14° ENE visible
28 Sep 12.3 19:53:28 10° WSW 20:04:00 50° NNW 20:05:35 49° NNW visible
28 Sep13.922:53:26NNE22:53:26NNE22:18:21WNWvisible
29 Sep 11.2 17:54:02 10° SW 18:01:53 80° SE 18:13:11 19° ENE visible
29 Sep 12.7 20:15:18 10° W 20:25:54 38° NNW 20:25:57 38° NNW visible
